Location: Arnolds Mill
(42.3415°N, 73.5951°W)
Time: 11:10:52
(UTC+00:00)

BlueWalker 3 - Pass Details

Date: 21 June 2024
Orbit: 480 x 492 km, 53.2° (Epoch: 13 July)

Event Time Altitude Azimuth Distance (km) Brightness Sun altitude
Rises 04:54:42 0° 303° (WNW) 2,540 6.0 -24.2°
Reaches altitude 10° 04:57:34 10° 326° (NW) 1,659 5.3 -24.2°
Maximum altitude 04:59:55 16° 5° (N) 1,341 5.0 -24.2°
Drops below altitude 10° 05:02:15 10° 44° (NE) 1,658 5.2 -24.2°
Sets 05:05:07 0° 68° (ENE) 2,538 5.8 -24.2°
